GFSFLT1_prec_cthk_081.txt.gz
RH
29 29 28 37 45 43 45 46 49 41 34 28 30 32 34 37 45 51 58 60 64 87 99 96 95 98 98 88 69 64 65 64
29 29 29 37 41 45 45 49 51 42 34 28 28 31 34 40 46 54 59 66 79 98 99 98 98 97 99 88 71 63 64 69
28 28 30 37 39 45 47 49 46 42 34 26 29 33 36 45 54 59 68 73 84 99 99 99 96 97 98 88 69 68 65 64
22 25 27 33 37 44 46 47 42 42 34 29 30 35 39 52 64 70 72 85 95 98 98 98 98 97 95 84 67 64 78 71
21 21 26 32 39 47 45 44 42 41 37 30 31 35 45 59 72 76 73 90 96 99 99 98 99 96 93 77 67 63 64 58
21 25 34 42 45 48 47 40 44 40 36 29 32 37 49 59 69 74 76 79 89 96 98 98 96 96 92 76 66 65 64 62
25 36 44 45 48 46 48 41 44 41 36 28 31 38 48 55 68 76 83 82 79 82 90 95 95 94 90 68 67 68 65 69
36 45 44 46 45 47 47 43 47 44 36 27 32 40 47 54 60 68 75 79 81 81 84 89 92 91 83 78 71 70 73 77
43 44 49 48 44 50 51 49 50 48 35 29 33 41 46 51 54 57 60 65 75 79 82 86 87 91 89 86 84 77 79 81
48 46 50 51 52 54 55 55 56 52 34 29 34 40 45 49 49 53 51 53 59 77 85 91 90 91 90 89 89 87 87 86
51 51 53 56 55 54 58 58 60 55 37 31 33 40 41 45 47 49 48 52 54 58 67 81 92 97 95 93 91 93 89 89
64 60 61 60 59 56 59 62 63 59 40 36 36 37 41 43 44 47 49 51 53 58 64 68 73 80 88 91 91 91 91 92
68 69 68 66 65 62 63 66 69 69 42 37 40 39 41 43 44 47 51 53 54 56 59 62 70 74 80 83 89 94 96 96
76 73 75 72 70 68 72 71 74 69 50 41 44 48 45 46 47 48 51 53 55 56 56 58 59 63 70 78 82 84 85 82
81 82 80 76 73 71 70 73 76 76 65 54 53 55 52 50 51 51 50 52 54 56 58 60 61 63 64 65 66 69 66 66
87 84 81 77 79 80 80 83 84 81 77 68 66 66 64 61 62 61 61 61 60 59 60 61 64 67 66 64 65 64 65 65
88 88 84 83 83 83 87 89 88 89 86 86 81 76 76 76 77 78 77 75 73 70 70 70 75 74 72 70 69 71 72 71
93 92 88 90 90 91 92 94 94 91 91 90 89 88 83 81 82 82 83 85 85 84 82 82 83 80 78 79 82 86 87 88
98 96 96 92 95 95 95 97 98 97 97 94 93 88 88 85 83 84 84 84 84 85 84 82 81 82 82 86 90 91 92 91

GFSFLT1_prec_cthk_087.txt.gz
RH
23 20 21 27 31 37 43 39 39 43 49 54 54 47 33 28 26 27 34 39 43 49 57 61 67 86 94 91 93 96 94 89
23 21 21 30 36 40 43 37 40 46 52 49 56 51 35 27 25 27 32 38 43 49 59 67 69 81 89 95 95 97 97 89
24 23 25 30 35 37 40 36 41 49 48 52 58 54 38 28 26 29 34 40 46 53 60 67 72 75 86 96 96 96 94 90
29 29 27 31 35 36 38 37 43 50 54 55 59 52 39 29 28 31 39 50 59 61 62 65 72 83 92 99 98 98 93 94
32 32 30 32 34 36 39 41 45 48 54 56 59 48 39 29 30 40 49 64 70 72 73 71 72 81 98 98 99 96 93 92
33 34 34 34 37 38 40 41 44 50 54 58 58 46 38 33 33 41 53 59 71 80 87 88 80 94 97 97 98 97 94 91
41 41 41 41 41 42 43 40 48 50 56 62 56 43 35 31 35 44 54 65 71 74 90 94 94 98 98 99 98 96 97 96
58 59 50 47 47 44 45 38 46 45 57 62 53 41 29 29 41 44 52 63 67 70 75 87 98 98 99 99 99 96 98 97
57 61 54 48 46 47 42 38 42 50 65 62 48 41 28 32 43 44 50 54 59 69 74 83 95 99 99 98 99 98 98 98
58 55 55 51 50 43 38 42 50 62 67 58 50 39 29 34 44 46 50 48 51 66 75 81 90 98 98 99 99 99 96 97
61 62 60 59 52 48 54 61 68 70 69 61 54 39 31 36 40 47 51 49 49 52 59 75 86 91 98 98 98 98 96 90
70 68 68 67 61 66 65 71 72 74 69 67 60 43 34 37 40 45 47 48 50 53 57 65 75 91 95 93 95 95 95 94
72 76 73 69 74 73 74 74 74 74 72 70 62 53 40 40 44 45 48 48 50 52 54 61 67 74 86 94 95 95 94 94
74 80 80 77 79 80 79 78 77 78 76 73 65 59 48 45 48 47 50 50 51 54 55 57 60 63 71 77 81 80 88 91
77 83 84 83 80 78 80 82 81 79 78 73 70 66 61 54 50 54 53 55 55 55 57 58 59 60 60 62 69 77 83 83
80 86 88 84 82 82 83 83 82 80 77 71 72 71 68 62 55 58 58 55 56 57 57 60 60 60 63 65 66 66 67 67
86 88 90 88 84 84 83 83 85 83 79 77 76 75 70 67 59 58 61 60 60 62 62 61 60 62 65 68 72 76 75 76
94 89 92 92 86 87 90 89 89 87 85 82 81 80 77 74 70 64 65 67 71 72 73 73 71 72 74 75 76 78 81 83
96 93 89 92 93 93 91 93 95 92 89 89 87 85 84 83 77 74 80 86 90 92 92 90 90 91 92 92 92 91 90 91

GFSFLT1_prec_cthk_093.txt.gz
RH
27 25 22 20 19 17 20 25 29 33 36 44 44 39 38 41 41 45 46 34 25 29 36 42 49 54 72 81 88 88 89 91
27 22 24 23 21 19 20 23 36 34 36 34 38 38 43 43 44 50 48 35 23 26 33 40 45 48 58 67 70 74 88 94
17 17 20 23 24 20 22 22 32 35 36 32 32 40 48 45 48 51 53 35 25 25 32 37 43 47 53 58 61 64 80 94
32 29 20 25 24 21 22 23 32 34 36 35 37 46 47 47 49 50 53 38 28 28 33 36 45 50 50 52 61 69 77 91
33 36 30 31 28 25 23 23 30 36 36 35 38 40 43 45 47 51 51 40 32 29 36 44 57 63 66 65 62 75 77 88
39 32 31 30 29 25 27 29 37 36 33 36 41 42 46 50 52 54 51 40 31 31 42 54 65 73 80 78 71 70 79 85
45 36 33 34 33 34 31 34 36 38 34 35 41 42 49 53 54 57 52 37 31 39 48 58 64 74 85 94 82 78 95 84
56 44 37 39 39 39 46 38 37 36 36 41 42 45 53 55 58 61 51 32 36 44 49 58 68 69 79 93 95 91 81 82
51 53 49 46 39 39 45 50 47 47 49 47 47 53 58 58 58 66 44 33 38 45 47 50 57 67 74 88 93 96 88 96
53 57 58 54 46 50 51 49 51 55 66 56 53 57 59 62 63 65 37 38 43 45 47 48 56 65 76 88 98 99 94 92
59 59 61 61 57 58 67 83 85 76 77 73 59 60 62 65 69 60 37 41 44 47 50 51 54 60 74 92 98 99 97 97
63 66 66 62 62 64 69 91 85 93 85 72 63 61 61 67 72 54 40 44 47 47 50 52 54 61 80 90 97 98 98 99
70 70 72 70 69 72 74 79 80 86 81 72 62 65 66 71 72 60 46 47 47 47 49 50 55 62 75 92 95 97 99 98
72 74 76 76 71 73 75 76 72 78 74 67 68 68 71 76 73 66 54 53 49 49 48 50 57 62 67 81 93 97 98 98
76 79 78 80 78 77 79 77 72 72 76 70 70 73 79 84 76 73 64 62 57 51 50 52 55 59 65 69 77 90 96 98
75 80 87 84 81 83 85 82 80 72 74 76 82 81 90 87 81 78 77 70 64 59 53 53 56 57 60 66 71 74 80 88
70 79 85 89 85 87 92 92 90 86 86 91 95 96 98 93 85 84 85 81 73 68 63 60 55 59 60 61 65 73 80 77
77 80 87 93 88 90 96 94 95 96 95 94 96 96 98 97 92 89 92 85 82 78 74 66 65 64 64 64 63 66 68 71
80 87 88 93 94 92 95 98 95 96 95 93 97 96 97 98 96 91 91 90 86 83 84 81 73 71 71 70 69 69 69 70

GFSFLT1_prec_cthk_096.txt.gz
RH
32 33 31 28 25 24 22 26 23 24 30 45 45 52 51 42 38 38 39 41 41 43 33 28 34 40 47 62 80 93 94 96
33 36 32 29 26 26 24 24 22 23 26 43 49 48 50 45 42 41 40 42 43 45 33 28 34 39 44 50 62 80 84 92
35 35 33 30 30 25 26 26 23 21 23 36 47 45 43 46 46 42 42 45 47 47 33 27 32 37 41 45 52 62 68 74
38 35 32 26 28 32 25 30 25 22 23 38 52 54 51 47 45 43 43 49 50 50 36 28 33 36 40 45 48 53 58 64
49 37 34 28 27 23 29 33 26 24 24 34 46 41 38 37 41 44 42 53 57 51 40 30 35 36 45 54 59 61 58 59
62 49 40 37 30 26 26 33 28 26 26 30 34 44 42 39 46 43 45 54 56 51 40 32 37 42 54 65 73 76 80 73
70 63 55 40 43 39 40 42 34 28 30 32 42 48 43 42 45 43 48 53 53 52 36 36 42 47 61 68 76 82 83 79
78 69 61 51 41 37 37 39 41 33 37 44 49 46 45 44 45 42 50 54 55 46 30 41 48 53 61 68 77 87 94 83
76 78 71 62 51 42 45 44 59 61 55 57 57 54 49 49 46 43 51 53 55 34 35 46 49 53 60 68 75 81 93 92
84 73 63 62 58 54 48 52 64 69 74 71 64 66 56 52 48 49 55 57 51 32 39 48 52 53 56 66 78 81 89 92
74 62 63 71 70 65 61 63 76 78 76 73 69 65 61 54 53 56 58 62 46 36 43 49 51 55 56 61 68 87 96 96
76 65 63 73 72 72 71 69 73 84 91 94 86 80 65 57 58 62 67 61 44 37 46 52 55 57 57 65 84 94 98 98
73 69 68 69 72 76 78 77 74 73 79 98 93 88 73 64 62 70 73 59 49 43 49 53 55 55 59 69 83 95 97 98
74 72 70 71 72 71 74 78 86 83 77 83 90 90 77 70 71 75 72 63 53 49 51 53 54 57 61 65 73 88 97 98
70 73 70 70 71 73 74 77 78 84 88 89 90 85 75 71 74 79 76 71 62 58 57 54 58 59 63 67 73 76 91 96
69 69 70 75 74 76 76 78 79 84 76 81 90 88 79 79 79 81 81 80 72 68 63 62 63 62 62 65 68 73 74 80
71 69 70 76 78 79 79 80 83 87 89 77 87 86 75 78 80 84 82 86 79 71 72 69 68 65 64 66 66 70 73 77
68 67 65 72 81 85 83 85 89 92 89 94 88 83 87 87 85 86 86 88 93 84 74 76 76 71 68 68 68 68 73 73
71 75 76 80 84 89 86 89 92 98 90 88 93 95 93 92 91 94 97 95 90 97 86 78 81 78 76 72 72 72 72 72

GFSFLT1_prec_cthk_102.txt.gz
RH
29 28 29 29 31 33 36 35 33 36 36 38 52 57 52 46 48 62 48 39 44 42 39 41 42 44 40 37 40 43 48 60
23 22 24 26 27 28 30 30 31 34 35 39 43 52 47 44 45 62 63 45 45 45 43 45 43 46 44 39 40 42 49 56
20 20 21 24 24 25 27 28 30 30 32 33 33 38 43 39 43 56 71 61 47 50 48 47 45 49 47 42 39 39 46 51
32 29 28 26 26 27 28 29 29 32 34 35 36 37 44 44 44 52 61 65 61 61 55 50 49 50 50 48 39 39 44 46
42 42 39 37 35 31 28 31 31 32 37 34 35 35 34 39 40 44 49 59 75 73 63 53 53 50 51 51 38 39 46 46
45 44 45 44 44 42 40 36 35 36 40 37 36 35 33 35 32 41 52 60 77 74 68 56 54 50 53 55 40 38 45 50
48 49 50 52 50 54 52 49 47 42 48 39 34 33 35 38 32 37 50 64 73 73 63 55 52 52 55 58 42 40 46 56
49 55 60 60 63 70 67 62 56 49 45 38 30 33 39 45 39 39 51 63 70 67 55 55 52 53 56 57 42 44 50 55
63 67 73 76 80 85 76 70 70 59 50 46 44 45 43 46 40 43 58 69 69 63 56 58 54 58 60 57 42 49 51 54
78 82 87 85 87 87 81 77 75 66 67 60 51 54 53 53 47 56 69 80 72 64 63 57 58 59 61 49 48 52 52 55
91 91 95 94 90 87 85 80 77 75 73 71 64 56 65 63 56 58 65 73 77 67 67 59 56 59 60 50 49 52 53 56
91 93 96 95 91 88 84 83 86 86 79 73 70 69 67 63 64 67 72 78 80 76 72 63 59 57 58 50 50 53 55 58
92 91 92 90 86 79 82 87 88 82 84 78 79 80 72 76 80 72 81 80 83 82 75 66 62 63 57 51 51 53 54 58
87 87 86 86 87 81 81 88 93 92 86 89 92 86 84 84 91 88 88 91 90 87 81 75 71 64 55 50 51 53 57 62
87 85 82 81 83 86 81 85 93 95 95 90 86 86 87 93 94 88 98 96 92 89 83 76 74 67 56 50 51 51 60 61
82 82 81 78 84 85 85 81 87 90 94 94 90 89 85 86 97 98 98 98 93 88 82 79 76 67 58 53 54 55 61 60
79 77 79 78 78 81 82 84 81 84 83 84 87 84 83 90 99 98 98 97 91 86 87 84 78 72 62 57 58 59 58 57
76 77 77 78 77 81 85 87 84 84 84 83 81 79 81 89 93 91 98 94 92 89 86 81 84 80 69 64 61 62 61 66
79 77 76 78 81 86 84 86 87 84 83 82 82 84 93 95 91 94 98 92 91 95 90 86 88 86 81 78 69 67 68 68

GFSFLT1_prec_cthk_105.txt.gz
RH
29 28 28 29 29 30 31 32 33 34 34 34 35 42 49 59 59 55 60 54 50 50 45 41 40 36 39 43 38 35 41 49
30 30 31 31 30 29 29 30 31 31 32 32 33 35 40 48 56 55 57 57 58 53 47 46 42 38 41 43 43 37 39 48
26 28 29 29 28 27 28 27 27 28 29 29 30 33 37 38 50 56 54 54 62 63 50 46 44 42 45 46 45 45 39 45
31 30 29 29 27 27 27 27 26 26 27 29 34 38 41 42 44 48 52 51 53 70 61 48 47 49 48 49 47 51 43 44
34 34 36 35 34 32 30 27 26 25 25 28 35 38 40 39 36 38 43 46 49 60 71 60 52 56 53 53 50 54 52 44
38 37 36 36 36 36 36 34 32 28 27 26 34 38 41 40 41 39 41 44 47 57 69 74 68 61 58 57 52 53 58 45
43 41 38 39 40 40 40 39 39 38 33 30 30 37 44 46 43 40 39 38 48 53 63 61 81 72 68 59 54 54 61 47
45 43 43 46 47 47 45 46 45 49 43 41 32 39 47 48 47 47 41 35 41 48 61 58 70 71 69 61 54 54 63 50
50 50 51 57 63 61 59 64 61 63 59 51 46 44 57 52 52 57 49 40 33 43 60 65 73 72 67 61 54 53 64 48
57 60 64 70 81 80 73 77 84 80 77 66 56 53 53 53 50 55 56 50 46 50 66 71 79 72 68 64 55 55 60 45
64 70 78 85 94 94 92 93 90 84 77 71 66 62 62 57 56 53 58 58 54 60 67 75 77 74 70 62 56 59 60 47
76 79 90 91 98 98 98 95 90 85 80 79 75 75 69 69 68 66 62 63 59 59 72 79 77 76 75 65 59 57 57 52
86 90 94 95 97 98 98 95 90 89 84 80 81 85 85 75 71 73 72 68 66 69 74 79 78 83 78 68 59 59 54 50
93 91 93 94 94 95 91 86 86 88 88 88 88 93 92 89 85 82 80 80 74 72 80 86 82 81 79 70 66 62 57 54
95 93 92 90 87 90 92 90 89 94 94 96 97 97 96 88 88 85 86 87 83 80 82 86 78 83 81 76 72 61 59 55
91 91 90 87 84 85 88 90 87 90 96 98 96 94 92 90 92 90 86 91 94 92 92 87 79 91 85 80 71 64 59 57
93 87 86 85 82 84 88 88 88 89 92 98 99 96 98 96 95 93 94 98 96 98 97 89 92 93 89 80 74 67 65 60
91 85 83 84 83 82 86 91 93 89 89 91 92 94 96 86 87 97 98 99 99 98 98 95 97 93 87 82 79 72 68 63
90 85 82 81 81 86 90 90 91 93 93 89 89 87 88 85 91 97 99 98 98 99 97 97 96 91 89 85 84 82 75 68

GFSFLT1_prec_cthk_108.txt.gz
RH
35 34 33 31 31 28 30 33 35 34 38 44 45 44 49 53 52 51 50 49 52 57 54 47 44 45 47 43 36 38 37 34
37 34 34 35 34 32 30 30 31 32 34 40 41 38 36 43 44 46 53 50 50 55 65 57 49 49 50 48 39 39 41 39
34 34 34 35 35 35 33 32 31 32 34 33 42 43 41 41 44 44 42 50 51 54 61 65 56 51 51 52 41 41 42 43
32 32 31 31 32 32 32 32 31 29 28 28 29 38 41 40 36 38 33 38 46 51 55 62 63 54 51 51 45 43 43 45
33 30 30 29 29 30 30 30 30 31 30 29 30 34 37 36 34 34 31 33 40 47 52 55 65 62 55 52 49 52 48 45
36 35 33 32 31 30 30 29 29 30 31 30 29 28 33 38 37 36 38 35 36 42 48 55 58 69 66 56 52 58 57 48
43 40 36 34 33 32 30 30 31 32 32 34 34 31 29 39 38 39 40 41 40 43 48 53 53 67 77 68 60 62 61 52
41 38 36 34 35 36 35 36 38 38 36 39 39 35 35 31 41 42 49 43 41 43 47 47 53 62 76 83 78 68 66 58
43 41 40 40 41 42 44 47 51 51 45 41 46 46 41 35 35 45 52 49 41 44 47 48 50 60 73 74 83 79 72 61
49 48 47 46 48 53 56 61 68 67 60 54 56 57 55 43 44 50 57 55 49 47 49 52 56 62 67 72 83 84 70 64
43 46 53 55 59 64 73 81 87 82 72 72 74 75 73 59 58 55 62 65 61 52 52 58 60 66 71 78 88 81 82 65
46 52 57 61 68 79 85 91 95 94 90 90 88 87 84 78 71 62 66 68 62 58 60 63 61 56 77 87 89 83 82 70
52 61 62 73 78 89 93 95 97 98 98 95 91 87 86 95 84 74 68 63 58 61 63 68 66 62 75 88 87 86 82 70
55 64 78 80 89 93 95 98 98 98 95 91 90 92 89 89 87 74 72 69 67 65 66 71 71 64 76 85 90 87 79 68
68 75 83 87 92 93 95 97 97 96 97 95 97 96 95 92 91 79 78 79 79 76 77 77 76 75 85 92 86 80 78 71
86 87 89 92 93 91 90 91 94 91 94 97 96 97 97 90 96 91 85 88 93 96 92 89 86 85 88 91 86 80 79 77
93 94 93 95 92 91 91 94 92 92 87 95 98 99 96 98 98 96 95 94 94 98 95 94 92 89 92 90 86 80 83 78
96 96 96 94 90 92 91 93 96 96 90 94 96 98 98 98 98 98 96 97 97 95 95 95 95 94 93 93 88 81 85 81
97 95 95 94 90 89 95 93 96 97 98 98 95 98 99 96 97 98 97 98 99 99 98 99 99 99 99 95 91 89 89 81